User: anonymous   Login
Location: Bonn
(50.7330°N, 7.1000°E)
Time: 04:32:09
(UTC+02:00)
Language:

Iridium 84 - Orbit

View from above orbital plane
View from above orbital plane
View from above satellite
View from above satellite

Ground track
Ground track

The orbit data is extracted from the following two-line orbital elements,

1 25530U 98066D   17119.79526544 +.00000034 +00000-0 +51283-5 0  9996
2 25530 086.3989 010.2026 0002105 084.7814 275.3622 14.34213684969996
Epoch (UTC): 29 April 2017 19:05:10
Eccentricity: 0.0002105
inclination: 86.3989°
perigee height: 776 km
apogee height: 779 km
right ascension of ascending node: 10.2026°
argument of perigee: 84.7814°
revolutions per day: 14.34213684
mean anomaly at epoch: 275.3622°
orbit number at epoch: 96999

The dashed part of the orbit path shows where the satellite is in the earth's shadow,  

DLR